Wind_Speed
37 39 39 41 38 37 41 38 39 37 42 41 44 45 40 38 41 45 44 42 43 44 54 57 54 53 47 50 48 53 49 46 50 54 57 55 53 54 57 62 66 61 62 64 67
40 40 40 39 38 44 47 48 47 46 50 47 45 45 53 44 47 53 52 51 43 45 51 59 64 61 57 53 51 51 47 49 53 53 51 55 52 50 49 57 65 66 65 65 67
41 41 42 43 48 49 49 51 51 47 48 50 53 56 53 53 58 60 58 57 59 56 47 54 56 62 61 67 63 60 46 52 52 54 56 54 52 56 51 48 57 60 59 61 61
41 45 46 47 53 47 48 49 48 55 55 53 52 51 57 59 62 60 59 65 65 65 64 62 58 61 67 68 74 73 66 60 59 54 58 54 57 56 56 57 55 54 53 59 63
43 45 44 47 48 55 57 60 60 66 66 65 65 61 62 57 71 66 63 70 70 69 72 72 71 67 65 71 75 70 74 72 67 60 56 60 59 58 59 63 60 58 56 54 50
48 50 55 54 57 65 66 70 74 76 73 74 72 72 66 66 73 74 77 76 78 78 79 79 80 80 77 71 76 77 81 80 72 70 65 66 63 64 58 63 68 66 61 61 57
52 56 59 65 63 67 71 80 79 81 81 80 81 79 74 78 80 80 81 84 87 87 86 88 87 88 87 88 85 82 83 86 77 76 74 74 73 58 67 73 71 70 68 68 63
55 61 65 65 66 71 76 83 85 87 85 88 88 86 82 82 84 88 90 92 94 96 97 96 97 98 97 98 96 96 94 85 74 85 85 89 69 76 75 76 76 76 75 74 72
62 63 71 72 74 79 86 88 91 90 91 91 89 89 89 92 94 96 100 102 103 102 102 104 107 107 108 108 105 101 92 86 85 93 98 100 78 79 85 82 80 87 83 79 76
69 73 75 76 83 92 93 93 94 93 90 92 95 100 102 106 107 107 109 110 110 113 114 118 120 121 116 109 103 97 101 98 101 101 109 103 85 89 94 88 91 89 90 85 79
73 76 78 86 94 103 99 96 96 93 91 98 102 109 113 116 116 117 120 118 120 118 118 121 126 117 112 108 108 106 106 105 99 101 112 103 90 96 98 97 91 92 93 90 85
75 80 82 97 106 108 101 102 99 100 102 108 112 116 118 119 118 129 120 117 115 114 112 110 114 106 105 109 109 106 106 104 94 103 110 100 92 99 99 96 94 91 92 93 91
83 85 91 104 113 110 105 105 110 111 111 114 116 119 121 114 116 107 99 101 100 98 102 106 92 95 100 101 102 98 96 92 93 100 105 100 95 98 96 97 97 94 92 97 98
83 90 104 112 117 112 111 115 118 121 118 126 125 119 114 106 99 92 89 90 92 94 98 96 89 93 91 90 85 85 82 84 87 93 92 94 95 100 97 97 101 98 95 96 101
88 101 112 120 117 117 122 125 127 128 130 127 128 117 108 101 92 88 87 89 86 90 91 86 84 90 86 78 80 73 76 78 82 81 84 92 93 82 91 96 94 96 95 95 97
99 110 121 126 120 124 127 138 128 133 131 131 118 110 99 97 94 87 79 74 69 72 74 71 72 82 81 81 81 76 76 77 77 76 86 83 77 66 81 82 89 94 95 93 94
108 120 127 128 131 130 134 138 138 138 130 121 109 99 97 91 80 73 72 64 57 59 60 58 62 65 69 78 79 79 74 73 73 76 73 64 66 51 73 76 83 88 88 87 87
114 125 134 135 137 138 137 139 138 134 129 116 107 99 95 83 75 67 62 54 50 51 51 50 51 56 57 66 70 73 71 70 68 66 59 68 65 49 63 70 77 81 80 81 82
119 130 136 140 144 145 144 141 141 130 122 107 102 97 86 80 69 59 52 44 46 41 40 45 49 50 47 53 62 65 63 68 72 69 69 67 58 57 63 67 70 71 76 77 79
125 135 142 150 147 152 143 144 135 128 114 108 105 91 81 74 64 51 45 37 37 31 32 38 42 41 45 50 49 50 66 67 66 68 64 60 55 56 63 60 64 70 76 77 76
130 139 148 152 153 150 147 141 132 125 113 107 100 87 80 68 57 49 44 34 32 27 27 31 33 38 44 46 44 54 60 63 65 66 65 56 59 53 55 60 60 62 70 72 72
134 143 152 150 161 151 147 136 127 116 111 107 92 84 73 62 54 46 40 33 28 24 24 24 30 36 40 45 48 51 53 57 61 62 60 60 54 46 44 50 50 61 69 71 72
140 149 156 153 162 154 140 136 124 113 109 100 87 77 66 59 49 40 34 30 25 21 21 24 28 33 39 46 48 48 51 53 57 58 57 50 46 46 52 52 58 63 65 66 67
145 150 156 155 160 152 139 129 118 114 109 93 84 70 62 54 42 35 29 26 21 19 21 24 27 35 40 42 43 43 46 44 46 45 46 47 46 50 55 59 62 63 65 66 63
147 155 161 160 157 145 138 128 115 113 104 88 78 67 57 48 38 30 28 23 18 18 21 23 26 33 35 37 37 37 45 45 44 46 49 47 48 46 48 51 59 61 61 59 59
151 161 162 161 156 142 135 124 115 114 95 85 73 63 53 44 36 28 26 21 19 20 22 25 28 30 31 35 36 39 43 42 44 47 46 48 42 47 46 48 58 59 55 53 52
158 163 165 163 149 139 130 120 114 105 90 79 68 59 50 40 32 25 20 15 16 21 22 25 27 31 32 36 38 41 42 42 43 43 40 40 43 42 40 46 50 50 50 47 45
Wind_Direction
336 332 330 328 320 315 314 308 305 294 302 304 293 300 299 302 295 295 292 288 276 270 270 271 269 268 270 265 263 260 258 256 259 256 256 253 251 252 252 247 245 244 244 247 245
335 333 326 322 316 316 315 312 312 300 301 292 299 303 296 297 288 289 292 302 297 278 270 267 268 265 265 267 268 267 259 258 259 259 255 258 257 254 251 249 251 247 247 245 244
334 328 325 321 321 323 322 315 313 306 298 306 301 300 303 296 287 283 292 293 299 300 284 267 265 266 267 264 268 271 266 255 253 257 261 257 256 256 250 250 250 247 248 243 243
332 328 325 324 318 312 313 312 318 314 312 303 301 314 303 293 285 291 294 299 295 295 295 291 275 263 262 266 262 262 267 263 261 253 252 256 255 255 252 250 255 251 246 238 244
326 323 316 312 323 325 319 321 317 318 313 312 310 305 303 304 286 299 293 291 291 289 286 287 290 281 266 257 260 262 264 268 265 260 254 254 250 251 251 252 253 253 248 246 243
316 315 322 319 321 320 321 321 320 315 313 309 308 311 312 300 296 294 293 293 289 292 290 283 279 277 279 268 263 257 255 260 262 263 255 254 253 246 249 253 255 250 250 250 242
316 310 315 315 318 325 323 322 322 317 312 310 308 310 311 299 299 296 292 291 288 285 283 283 278 275 272 273 270 265 261 258 258 261 263 255 250 251 247 249 248 252 248 251 250
315 319 314 314 327 324 323 323 320 316 315 310 310 307 307 301 297 293 294 288 286 285 283 280 278 277 278 274 272 268 265 264 265 261 260 258 246 249 248 246 246 248 246 245 248
316 313 319 320 323 323 323 321 319 316 313 309 307 306 302 301 299 296 293 291 288 284 282 280 276 276 271 273 271 267 272 276 267 265 262 258 249 247 245 243 243 244 243 241 243
317 318 319 326 327 326 322 321 316 317 313 309 308 309 306 304 301 296 293 290 286 284 284 282 276 272 272 272 271 277 269 261 256 255 256 254 248 245 245 239 238 241 243 241 240
313 323 323 329 328 328 326 320 319 317 313 309 309 309 308 305 301 296 292 291 288 284 280 277 271 270 275 273 269 262 258 257 252 253 252 248 241 242 241 240 232 238 240 238 238
321 324 327 328 327 326 324 323 321 317 314 309 310 310 309 304 301 295 293 290 285 281 276 270 268 270 266 262 260 258 257 254 250 250 250 246 243 241 239 241 239 234 238 238 236
323 329 327 327 330 329 325 325 322 317 314 310 311 310 307 303 297 292 289 285 282 277 274 272 271 265 263 260 260 260 258 256 252 249 247 245 241 242 241 239 240 237 235 234 235
326 330 329 329 330 330 329 325 322 320 314 314 315 311 308 302 299 295 290 281 278 273 268 269 268 265 262 259 257 255 255 252 251 248 246 245 242 238 236 237 237 237 237 236 233
324 329 329 329 332 332 329 324 321 318 315 321 318 314 311 306 302 296 291 285 280 275 272 270 264 263 260 257 251 250 247 246 245 244 241 241 239 236 237 236 237 237 238 238 236
333 330 330 333 332 331 328 325 321 320 320 319 319 317 312 308 306 302 294 287 284 280 273 267 260 257 255 252 248 244 239 241 241 239 238 237 241 233 238 235 234 236 237 237 235
330 332 334 334 333 329 327 325 322 324 324 322 320 316 314 310 306 302 296 294 287 277 272 265 258 252 248 245 244 240 234 237 237 238 242 240 242 222 235 233 232 232 234 237 235
331 334 336 335 332 329 326 326 324 327 326 324 322 320 317 313 311 305 299 294 280 274 268 262 253 248 242 243 240 238 232 232 235 238 237 236 233 219 231 228 228 229 231 229 230
330 334 336 336 334 330 326 326 328 327 327 326 324 322 320 317 314 307 302 294 282 275 265 254 247 241 236 236 233 230 232 231 228 228 227 229 227 223 227 227 225 226 226 226 227
332 334 336 336 332 331 329 329 330 330 330 327 327 324 323 319 315 313 309 299 286 275 262 250 245 237 230 230 230 224 224 229 229 228 227 226 226 221 222 227 222 219 221 223 224
330 335 336 336 332 331 330 332 332 331 330 330 328 327 324 322 320 318 311 303 288 277 265 249 239 231 227 223 217 220 221 221 222 224 223 221 224 221 218 225 223 221 223 222 220
334 336 336 334 335 331 333 333 333 333 331 332 329 328 326 323 321 319 310 300 289 276 262 246 233 229 219 216 213 218 218 219 218 217 220 218 219 217 215 220 222 220 221 220 219
334 336 337 333 333 333 335 335 334 334 334 333 330 329 326 325 322 318 306 297 288 271 257 242 228 222 213 213 211 210 215 215 216 215 216 214 210 206 206 210 216 218 219 221 221
335 336 337 334 334 336 337 336 335 334 335 333 331 330 328 327 322 315 301 293 284 263 245 238 222 219 215 217 212 207 214 216 214 213 210 208 204 206 209 209 213 215 217 218 217
336 337 337 334 333 336 338 336 337 335 336 334 332 332 331 327 322 316 298 291 275 249 238 228 218 216 212 209 208 200 211 210 201 200 203 205 206 207 212 213 218 220 219 220 219
337 338 337 334 333 337 338 337 337 335 337 334 334 334 333 331 326 321 307 298 267 243 228 221 213 209 203 201 198 196 205 206 197 198 198 200 200 204 207 205 213 220 225 225 223
336 336 336 333 335 338 338 337 338 337 336 336 335 335 335 333 329 322 308 298 265 243 225 215 206 198 194 192 192 194 196 193 192 193 194 197 202 204 206 208 213 214 219 221 220
Height
10761 10758 10754 10750 10746 10742 10738 10735 10731 10728 10724 10720 10716 10710 10704 10697 10691 10684 10679 10678 10677 10674 10669 10669 10668 10666 10666 10664 10664 10662 10669 10672 10668 10668 10668 10672 10676 10677 10681 10685 10682 10693 10698 10706 10709
10756 10752 10748 10744 10740 10736 10732 10728 10724 10721 10715 10710 10705 10698 10693 10686 10679 10666 10665 10664 10661 10658 10655 10652 10650 10651 10651 10649 10652 10650 10657 10657 10651 10653 10657 10659 10664 10664 10669 10670 10671 10679 10686 10690 10694
10750 10746 10742 10737 10733 10729 10724 10719 10716 10711 10704 10698 10692 10686 10678 10671 10664 10653 10648 10645 10642 10640 10638 10635 10634 10632 10634 10631 10636 10633 10643 10636 10640 10641 10642 10647 10653 10649 10657 10662 10657 10664 10673 10678 10683
10744 10741 10737 10731 10726 10722 10716 10709 10704 10696 10686 10681 10675 10669 10665 10654 10638 10641 10633 10626 10621 10619 10616 10614 10613 10614 10613 10614 10612 10616 10618 10620 10621 10624 10628 10633 10636 10641 10645 10647 10648 10653 10658 10665 10666
10738 10734 10729 10724 10716 10709 10702 10696 10687 10677 10667 10660 10654 10650 10647 10640 10613 10616 10617 10608 10603 10598 10593 10588 10588 10585 10593 10589 10585 10599 10600 10600 10601 10607 10612 10613 10622 10627 10634 10634 10637 10640 10645 10651 10655
10731 10725 10721 10715 10706 10696 10687 10677 10668 10658 10647 10637 10630 10625 10623 10617 10599 10593 10585 10585 10575 10573 10569 10564 10561 10554 10561 10565 10565 10569 10571 10578 10583 10586 10591 10596 10602 10608 10621 10618 10619 10624 10632 10634 10645
10723 10716 10710 10703 10695 10683 10669 10658 10650 10638 10626 10615 10605 10600 10598 10584 10573 10569 10561 10555 10550 10544 10543 10536 10530 10528 10528 10531 10536 10539 10544 10553 10565 10565 10568 10568 10582 10601 10596 10595 10601 10608 10617 10620 10627
10714 10705 10698 10690 10679 10668 10655 10641 10628 10616 10602 10587 10579 10569 10568 10559 10553 10539 10532 10525 10516 10513 10511 10506 10496 10493 10496 10494 10502 10504 10509 10528 10561 10540 10542 10534 10566 10575 10572 10576 10585 10587 10595 10603 10608
10702 10692 10681 10671 10662 10650 10638 10624 10608 10596 10578 10563 10552 10542 10534 10528 10520 10509 10496 10487 10478 10474 10475 10470 10462 10458 10455 10458 10463 10466 10490 10509 10521 10507 10505 10501 10545 10544 10543 10554 10560 10561 10569 10582 10591
10687 10677 10663 10651 10641 10632 10619 10606 10590 10576 10555 10534 10524 10512 10502 10486 10482 10468 10458 10446 10439 10433 10434 10429 10416 10406 10414 10426 10433 10458 10452 10460 10460 10468 10454 10471 10512 10512 10513 10521 10535 10538 10548 10561 10574
10671 10658 10645 10628 10617 10607 10594 10579 10568 10552 10536 10509 10495 10483 10470 10451 10435 10420 10404 10402 10386 10387 10389 10373 10357 10367 10391 10397 10394 10396 10398 10407 10430 10440 10423 10442 10477 10475 10483 10491 10510 10519 10525 10541 10555
10654 10639 10629 10610 10597 10579 10563 10546 10530 10517 10512 10479 10469 10451 10433 10412 10403 10367 10359 10350 10341 10330 10327 10322 10318 10345 10347 10340 10340 10354 10361 10373 10401 10394 10388 10420 10444 10445 10454 10472 10483 10499 10506 10520 10533
10635 10622 10608 10594 10573 10552 10532 10513 10496 10483 10465 10448 10435 10418 10390 10369 10345 10339 10326 10299 10290 10288 10278 10269 10303 10296 10291 10301 10307 10321 10333 10351 10358 10358 10359 10382 10408 10417 10437 10447 10458 10473 10486 10494 10507
10616 10603 10586 10575 10549 10524 10502 10485 10465 10445 10426 10395 10390 10365 10347 10314 10299 10287 10275 10261 10255 10247 10238 10242 10257 10250 10258 10267 10281 10289 10304 10313 10321 10321 10343 10355 10370 10379 10404 10418 10426 10445 10460 10471 10482
10597 10582 10565 10541 10522 10498 10479 10457 10433 10406 10382 10368 10327 10313 10289 10264 10257 10250 10234 10219 10216 10209 10206 10222 10226 10214 10226 10246 10245 10266 10274 10281 10286 10294 10309 10313 10327 10373 10377 10391 10411 10423 10436 10447 10461
10580 10563 10542 10517 10488 10471 10450 10427 10402 10377 10354 10319 10299 10270 10254 10232 10216 10200 10192 10188 10187 10175 10173 10184 10189 10183 10197 10207 10214 10232 10242 10250 10261 10273 10270 10299 10321 10362 10354 10375 10384 10394 10408 10423 10439
10559 10539 10516 10490 10471 10445 10420 10390 10368 10343 10314 10286 10265 10243 10220 10202 10188 10176 10160 10159 10157 10148 10146 10153 10154 10160 10167 10171 10184 10197 10218 10229 10241 10246 10269 10297 10301 10343 10329 10344 10358 10367 10385 10402 10417
10538 10517 10491 10466 10442 10419 10391 10366 10336 10309 10276 10250 10223 10209 10186 10171 10160 10149 10137 10133 10129 10125 10124 10128 10131 10133 10145 10150 10160 10177 10198 10213 10226 10240 10266 10265 10279 10317 10312 10320 10331 10344 10363 10379 10392
10517 10495 10472 10446 10421 10392 10365 10335 10306 10275 10249 10224 10203 10180 10160 10143 10132 10124 10115 10111 10102 10105 10106 10105 10108 10116 10127 10133 10140 10158 10183 10193 10199 10216 10233 10244 10268 10284 10290 10298 10315 10333 10340 10356 10370
10502 10476 10452 10424 10395 10365 10332 10303 10272 10241 10216 10190 10170 10151 10137 10122 10110 10102 10095 10092 10086 10087 10087 10088 10093 10102 10110 10117 10134 10153 10154 10172 10192 10204 10220 10236 10253 10265 10274 10285 10297 10306 10320 10337 10354
10483 10456 10426 10399 10369 10340 10310 10277 10247 10213 10192 10172 10148 10129 10113 10103 10092 10085 10079 10076 10071 10072 10074 10076 10081 10088 10096 10108 10125 10127 10138 10156 10173 10190 10202 10223 10234 10250 10263 10274 10290 10304 10310 10324 10338
10464 10438 10405 10375 10347 10314 10283 10252 10224 10197 10171 10147 10129 10111 10097 10086 10076 10070 10064 10061 10060 10061 10062 10067 10071 10076 10086 10094 10104 10117 10130 10145 10160 10175 10192 10206 10225 10244 10260 10270 10280 10283 10291 10306 10323
10447 10420 10389 10356 10326 10297 10263 10230 10196 10179 10153 10132 10113 10098 10082 10072 10064 10058 10052 10049 10050 10051 10053 10057 10063 10067 10075 10082 10094 10109 10121 10135 10152 10168 10184 10205 10222 10234 10240 10248 10254 10266 10282 10295 10313
10425 10402 10378 10335 10295 10266 10238 10212 10186 10157 10135 10116 10098 10084 10070 10060 10054 10048 10042 10038 10041 10042 10044 10049 10057 10060 10069 10078 10092 10107 10117 10130 10147 10164 10181 10193 10206 10213 10224 10236 10244 10256 10270 10285 10303
10406 10379 10349 10313 10287 10256 10222 10191 10167 10143 10120 10101 10086 10071 10061 10051 10043 10038 10032 10031 10033 10035 10036 10041 10050 10055 10066 10075 10088 10102 10110 10121 10137 10151 10165 10185 10194 10208 10226 10239 10244 10253 10265 10280 10294
10387 10361 10335 10298 10262 10234 10203 10177 10150 10126 10109 10089 10074 10062 10051 10042 10034 10031 10026 10027 10027 10029 10031 10034 10040 10049 10060 10070 10082 10094 10104 10115 10129 10146 10161 10173 10193 10202 10213 10225 10233 10245 10261 10276 10288
10361 10338 10311 10273 10250 10216 10188 10162 10140 10118 10093 10080 10065 10052 10042 10035 10029 10024 10021 10022 10022 10022 10027 10031 10037 10044 10055 10065 10075 10086 10098 10110 10127 10142 10162 10180 10188 10198 10212 10222 10230 10241 10253 10266 10280